EN

Hourly Weather Ganta

Today, 31 October, Saturday

Time Temperature Precipitation Wind Pressure Humidity
00:00 +21°C° 0 mm 0 mps 723 mmHg 89%
01:00 +21°C° 0 mm 0 mps 722 mmHg 91%
02:00 +20°C° 0 mm 0 mps 722 mmHg 94%
03:00 +20°C° 0 mm 0 mps 722 mmHg 95%
04:00 +20°C° 0 mm 0 mps 722 mmHg 96%
05:00 +20°C° 0 mm 0 mps 722 mmHg 96%
06:00 +22°C° 0.1 mm 0 mps 723 mmHg 88%
07:00 +24°C° 0.1 mm 0 mps 724 mmHg 80%
08:00 +26°C° 0.1 mm 0 mps 725 mmHg 73%
09:00 +29°C° 0.7 mm 1 mps 724 mmHg 67%
10:00 +31°C° 0.7 mm 1 mps 723 mmHg 61%
11:00 +32°C° 0.7 mm 1 mps 723 mmHg 55%
12:00 +33°C° 0.1 mm 1 mps 722 mmHg 53%
13:00 +33°C° 0.1 mm 1 mps 722 mmHg 50%
14:00 +34°C° 0.1 mm 1 mps 721 mmHg 48%
15:00 +32°C° 0 mm 1 mps 721 mmHg 55%
16:00 +30°C° 0 mm 1 mps 721 mmHg 63%
17:00 +26°C° 0 mm 0 mps 721 mmHg 70%
18:00 +25°C° 0.3 mm 0 mps 722 mmHg 76%
19:00 +24°C° 0.3 mm 0 mps 722 mmHg 82%
20:00 +24°C° 0.3 mm 1 mps 723 mmHg 87%
21:00 +22°C° 0.1 mm 0 mps 723 mmHg 89%
22:00 +22°C° 0.1 mm 0 mps 723 mmHg 92%
23:00 +21°C° 0.1 mm 0 mps 723 mmHg 94%

Tomorrow, 1 November, Sunday

Time Temperature Precipitation Wind Pressure Humidity
00:00 +21°C° 0.2 mm 0 mps 722 mmHg 95%
01:00 +21°C° 0.2 mm 0 mps 722 mmHg 96%
02:00 +20°C° 0.2 mm 0 mps 722 mmHg 96%
03:00 +20°C° 0.1 mm 0 mps 722 mmHg 97%
04:00 +20°C° 0.1 mm 0 mps 722 mmHg 97%
05:00 +20°C° 0.1 mm 0 mps 722 mmHg 98%
06:00 +22°C° 0 mm 0 mps 722 mmHg 92%
07:00 +24°C° 0 mm 0 mps 723 mmHg 86%
08:00 +25°C° 0 mm 0 mps 723 mmHg 80%
09:00 +28°C° 0 mm 0 mps 723 mmHg 70%
10:00 +32°C° 0 mm 1 mps 723 mmHg 60%
11:00 +34°C° 0 mm 1 mps 722 mmHg 50%
12:00 +33°C° 0.2 mm 1 mps 722 mmHg 53%
13:00 +32°C° 0.2 mm 1 mps 721 mmHg 56%
14:00 +32°C° 0.2 mm 1 mps 720 mmHg 59%
15:00 +30°C° 0.5 mm 1 mps 720 mmHg 68%
16:00 +28°C° 0.5 mm 1 mps 720 mmHg 77%
17:00 +24°C° 0.5 mm 0 mps 721 mmHg 86%
18:00 +24°C° 0.2 mm 0 mps 721 mmHg 87%
19:00 +23°C° 0.2 mm 0 mps 722 mmHg 89%
20:00 +22°C° 0.2 mm 0 mps 723 mmHg 90%
21:00 +22°C° 0.5 mm 0 mps 723 mmHg 93%
22:00 +22°C° 0.5 mm 0 mps 722 mmHg 95%
23:00 +21°C° 0.5 mm 0 mps 722 mmHg 98%

Day after tomorrow, 2 November, Monday

Time Temperature Precipitation Wind Pressure Humidity
00:00 +21°C° 0.1 mm 0 mps 722 mmHg 98%
01:00 +21°C° 0.1 mm 0 mps 722 mmHg 99%
02:00 +21°C° 0.1 mm 0 mps 722 mmHg 99%
03:00 +21°C° 0.1 mm 0 mps 722 mmHg 99%
04:00 +21°C° 0.1 mm 0 mps 722 mmHg 99%
05:00 +21°C° 0.1 mm 0 mps 722 mmHg 99%
06:00 +22°C° 0 mm 0 mps 722 mmHg 96%
07:00 +23°C° 0 mm 0 mps 723 mmHg 93%
08:00 +23°C° 0 mm 0 mps 723 mmHg 91%
09:00 +26°C° 0 mm 0 mps 723 mmHg 79%
10:00 +30°C° 0 mm 1 mps 723 mmHg 68%
11:00 +33°C° 0 mm 1 mps 723 mmHg 56%
12:00 +32°C° 0.8 mm 1 mps 722 mmHg 60%
13:00 +31°C° 0.8 mm 1 mps 721 mmHg 64%
14:00 +31°C° 0.8 mm 1 mps 721 mmHg 67%
15:00 +29°C° 0.2 mm 1 mps 721 mmHg 72%
16:00 +26°C° 0.2 mm 0 mps 721 mmHg 78%
17:00 +25°C° 0.2 mm 0 mps 721 mmHg 83%
18:00 +24°C° 0.1 mm 0 mps 722 mmHg 85%
19:00 +23°C° 0.1 mm 0 mps 722 mmHg 87%
20:00 +22°C° 0.1 mm 0 mps 723 mmHg 90%
21:00 +22°C° 0.1 mm 0 mps 723 mmHg 92%
22:00 +21°C° 0.1 mm 0 mps 723 mmHg 94%
23:00 +21°C° 0.1 mm 0 mps 723 mmHg 96%

3 November, Tuesday

Time Temperature Precipitation Wind Pressure Humidity
00:00 +21°C° 0 mm 0 mps 723 mmHg 97%
01:00 +21°C° 0 mm 0 mps 722 mmHg 98%
02:00 +20°C° 0 mm 0 mps 722 mmHg 99%
03:00 +20°C° 0 mm 0 mps 722 mmHg 99%
04:00 +20°C° 0 mm 0 mps 722 mmHg 99%
05:00 +20°C° 0 mm 0 mps 722 mmHg 99%
06:00 +22°C° 0 mm 0 mps 723 mmHg 92%
07:00 +24°C° 0 mm 0 mps 723 mmHg 85%
08:00 +26°C° 0 mm 0 mps 724 mmHg 79%
09:00 +27°C° 0.2 mm 0 mps 724 mmHg 71%
10:00 +31°C° 0.2 mm 1 mps 723 mmHg 63%
11:00 +33°C° 0.2 mm 1 mps 723 mmHg 55%
12:00 +33°C° 0.1 mm 1 mps 722 mmHg 53%
13:00 +33°C° 0.1 mm 1 mps 722 mmHg 51%
14:00 +33°C° 0.1 mm 1 mps 721 mmHg 49%
15:00 +31°C° 0.1 mm 1 mps 721 mmHg 58%
16:00 +29°C° 0.1 mm 1 mps 722 mmHg 66%
17:00 +26°C° 0.1 mm 0 mps 722 mmHg 75%
18:00 +25°C° 0.2 mm 0 mps 722 mmHg 80%
19:00 +24°C° 0.2 mm 0 mps 723 mmHg 86%
20:00 +23°C° 0.2 mm 0 mps 723 mmHg 91%
21:00 +22°C° 0.3 mm 0 mps 723 mmHg 93%
22:00 +22°C° 0.3 mm 0 mps 723 mmHg 95%
23:00 +23°C° 0.3 mm 1 mps 723 mmHg 97%

4 November, Wednesday

Time Temperature Precipitation Wind Pressure Humidity
00:00 +21°C° 0 mm 0 mps 723 mmHg 98%
01:00 +21°C° 0 mm 0 mps 722 mmHg 98%
02:00 +21°C° 0 mm 0 mps 722 mmHg 99%
03:00 +21°C° 0 mm 0 mps 722 mmHg 99%
04:00 +21°C° 0 mm 0 mps 722 mmHg 98%
05:00 +21°C° 0 mm 0 mps 723 mmHg 98%
06:00 +22°C° 0 mm 0 mps 723 mmHg 96%
07:00 +23°C° 0 mm 0 mps 723 mmHg 93%
08:00 +24°C° 0 mm 0 mps 724 mmHg 90%
09:00 +25°C° 0 mm 0 mps 723 mmHg 84%
10:00 +26°C° 0 mm 0 mps 723 mmHg 77%
11:00 +27°C° 0 mm 0 mps 723 mmHg 70%
12:00 +29°C° 0.1 mm 0 mps 722 mmHg 64%
13:00 +30°C° 0.1 mm 0 mps 722 mmHg 58%
14:00 +31°C° 0.1 mm 0 mps 721 mmHg 51%
15:00 +29°C° 0.3 mm 0 mps 721 mmHg 61%
16:00 +27°C° 0.3 mm 0 mps 721 mmHg 71%
17:00 +25°C° 0.3 mm 0 mps 721 mmHg 81%
18:00 +24°C° 1.3 mm 0 mps 722 mmHg 86%
19:00 +23°C° 1.3 mm 0 mps 722 mmHg 91%
20:00 +22°C° 1.3 mm 0 mps 723 mmHg 96%
21:00 +21°C° 0.6 mm 0 mps 723 mmHg 97%
22:00 +21°C° 0.6 mm 0 mps 723 mmHg 97%
23:00 +21°C° 0.6 mm 0 mps 723 mmHg 98%

5 November, Thursday

Time Temperature Precipitation Wind Pressure Humidity
00:00 +21°C° 0.3 mm 0 mps 723 mmHg 98%
01:00 +21°C° 0.3 mm 0 mps 722 mmHg 98%
02:00 +20°C° 0.3 mm 0 mps 722 mmHg 98%
03:00 +21°C° 0.8 mm 0 mps 722 mmHg 98%
04:00 +21°C° 0.8 mm 0 mps 722 mmHg 98%
05:00 +21°C° 0.8 mm 0 mps 722 mmHg 98%
06:00 +22°C° 0.6 mm 0 mps 722 mmHg 95%
07:00 +23°C° 0.6 mm 0 mps 723 mmHg 91%
08:00 +24°C° 0.6 mm 0 mps 723 mmHg 88%
09:00 +27°C° 0 mm 0 mps 723 mmHg 76%
10:00 +30°C° 0 mm 0 mps 723 mmHg 63%
11:00 +32°C° 0 mm 0 mps 723 mmHg 51%
12:00 +32°C° 0 mm 0 mps 722 mmHg 51%
13:00 +34°C° 0 mm 1 mps 721 mmHg 50%
14:00 +33°C° 0 mm 1 mps 720 mmHg 50%
15:00 +32°C° 0.1 mm 1 mps 720 mmHg 58%
16:00 +28°C° 0.1 mm 0 mps 721 mmHg 66%
17:00 +26°C° 0.1 mm 0 mps 721 mmHg 73%
18:00 +27°C° 3 mm 1 mps 721 mmHg 81%
19:00 +25°C° 3 mm 1 mps 722 mmHg 89%
20:00 +24°C° 3 mm 1 mps 722 mmHg 96%
21:00 +24°C° 3.1 mm 1 mps 722 mmHg 97%
22:00 +23°C° 3.1 mm 1 mps 723 mmHg 98%
23:00 +21°C° 3.1 mm 0 mps 723 mmHg 99%
Show more

We Need Your Consent

Meteoprog and our Service Providers may store and access personal data such as cookies, device identifiers or other similar technologies on your device and process such data to personalise content and ads, as well as provide social media features and to analyse the traffic.

  • Store and/or access information on your device

    Cookies, device identifiers or other information can be stored or accessed on your device for the purposes indicated above.

  • Personalised ads and content, ad and content measurement, audience insights, and products development

    Ads and content can be personalised based on a profile. More data can be added to better personalise ads and content. Ad and content performance can be measured. Insights about the audience who saw the ads and content can be derived. Such data can be used to develop or improve user’s experience, systems and software.

By clicking ‘I Agree’ you will allow the use of indicated cookies, device identifiers, web beacons or other similar technologies. Your settings can be changed in the browser on your device.

For certain purposes, legitimate interests may be relied on, rather than consent. You can read more about this in our Privacy and Cookie Policy.